Theta_e
338 334 330 328 323 321 329 336 340 340 335 336 332 326 326 326 325 325 325 329 331 333 333 326 322 321 321 321 322 321 321 322 323 324 324 324 325 324 324 325 326 319 315
337 332 330 329 324 319 322 332 339 339 337 336 328 325 325 324 324 327 325 329 328 328 326 322 321 321 322 323 321 322 322 321 320 321 322 323 324 324 328 327 323 319 318
335 331 331 330 325 319 319 328 337 338 337 330 325 325 323 322 325 329 326 327 328 321 322 321 321 320 321 320 319 320 320 320 320 324 333 333 325 322 322 323 324 325 332
330 331 331 330 327 319 318 322 332 332 328 324 324 323 320 321 321 326 325 323 323 320 320 321 320 320 320 320 320 320 320 320 321 332 333 333 329 320 320 320 321 322 323
333 331 332 331 328 320 317 319 323 323 323 323 322 321 318 320 321 320 320 321 319 320 320 320 321 320 321 321 321 322 321 321 323 333 333 334 332 320 319 319 320 320 321
338 333 331 331 329 322 318 318 320 322 322 322 321 320 317 320 321 320 320 319 320 320 320 321 323 324 324 323 322 321 321 322 330 331 331 327 332 322 321 321 320 320 320
338 336 331 332 330 324 318 317 318 320 322 322 321 319 317 320 321 320 320 320 320 320 322 323 325 327 326 323 324 322 323 327 331 331 332 333 322 322 322 322 322 321 321
335 333 332 332 331 327 320 317 317 318 321 322 321 319 318 320 320 320 321 320 320 321 323 325 325 326 327 322 325 325 326 328 332 333 334 334 322 321 323 324 324 323 322
335 331 332 332 332 330 323 318 317 316 319 321 322 320 318 319 320 320 320 320 320 321 324 322 322 324 324 325 325 327 327 328 335 333 335 335 329 326 321 325 326 326 324
331 331 331 332 332 331 328 321 318 316 317 320 321 321 319 319 320 320 320 319 319 321 325 322 325 326 327 329 328 331 330 330 338 337 336 337 332 331 327 322 325 327 325
331 331 332 332 332 332 330 325 320 318 317 317 320 321 320 319 319 320 320 320 319 321 323 325 327 329 331 331 331 333 332 333 336 338 337 335 333 332 330 325 323 325 325
333 331 331 331 331 332 333 329 323 319 318 317 318 320 321 333 322 321 320 320 320 321 322 324 327 330 332 335 332 332 333 333 334 337 338 334 333 332 332 330 325 322 323
337 336 331 330 331 331 337 332 328 323 321 318 317 317 328 335 331 324 322 320 320 320 322 325 326 328 332 335 335 335 334 331 334 336 336 333 333 333 333 332 330 328 323
336 336 331 331 329 331 337 335 335 333 329 328 320 317 327 326 333 331 332 324 322 323 326 324 331 330 334 328 334 335 328 331 332 336 337 332 332 333 333 333 332 331 329
336 335 327 330 325 328 333 338 338 334 327 329 325 318 320 326 330 331 333 332 333 332 329 331 332 331 327 324 323 321 321 322 327 333 336 336 332 332 333 332 332 332 331
335 331 324 324 322 323 328 335 336 332 333 327 328 321 317 320 325 328 330 332 333 332 332 332 332 333 332 332 324 322 323 324 327 333 335 336 332 332 333 333 332 331 331
331 332 323 322 322 322 323 328 333 335 331 325 329 320 317 317 319 318 326 327 327 332 326 328 330 329 331 331 326 331 324 323 324 327 334 336 336 332 331 332 333 330 330
333 331 324 323 323 323 323 324 328 335 328 329 328 325 319 318 317 317 319 321 325 328 327 326 325 329 329 330 330 328 330 328 329 327 331 334 336 336 333 329 329 328 328
334 333 326 325 324 324 324 324 324 326 326 328 331 327 322 321 319 318 318 322 319 322 328 327 328 329 329 330 329 328 327 328 329 328 328 331 335 335 334 334 328 328 329
338 337 332 327 327 327 326 325 328 329 327 326 327 326 323 323 322 321 320 320 319 322 327 327 328 329 327 329 328 328 328 328 328 324 327 329 331 334 333 335 334 330 331
339 340 338 334 332 330 330 331 330 331 330 329 329 328 326 324 324 324 323 323 322 321 323 324 323 321 329 329 330 329 329 329 323 327 330 330 331 333 335 334 334 335 336
335 338 337 333 335 335 335 334 333 334 336 335 336 334 330 327 326 325 325 325 325 325 324 323 323 329 329 330 331 330 330 334 337 333 332 330 333 334 335 335 333 333 334
321 329 336 337 328 332 334 337 340 340 340 339 338 336 336 336 333 330 327 326 326 326 327 326 326 326 330 332 332 331 333 335 334 337 336 334 334 336 336 336 334 334 334
320 320 320 330 328 330 332 340 339 337 338 335 335 337 338 338 337 336 333 328 327 327 327 328 328 328 328 331 334 333 330 332 336 336 336 335 335 335 334 333 333 332 331
321 321 319 319 326 339 332 329 333 335 332 336 338 337 336 336 336 337 337 334 331 328 328 328 329 329 332 332 333 335 335 334 335 335 335 337 336 334 332 331 331 330 330
321 321 319 319 319 327 335 322 324 323 324 337 336 333 334 331 331 333 336 337 337 334 330 329 329 329 330 334 336 336 335 336 336 335 335 335 335 334 334 333 332 332 332
Wind_Speed
21 22 21 18 18 19 20 21 22 22 21 18 16 16 17 17 17 18 20 18 16 16 18 17 18 19 20 20 20 20 20 21 20 20 20 20 19 19 20 20 18 18 18
26 24 22 19 18 19 20 22 23 23 21 17 17 17 17 16 16 18 19 17 15 15 16 18 19 20 20 20 21 21 20 20 20 20 19 19 18 18 17 18 18 18 17
27 26 22 20 18 19 20 22 24 24 19 18 18 17 16 16 18 18 18 15 15 15 17 19 19 20 21 21 21 20 19 19 19 20 23 14 16 16 16 16 16 16 16
28 27 24 21 18 19 20 22 24 22 20 20 18 17 17 19 18 18 16 16 16 16 18 19 19 20 21 20 20 19 20 19 19 21 14 13 14 16 15 14 14 14 13
27 27 25 22 19 18 19 21 22 22 21 19 18 17 18 19 18 17 17 17 17 17 18 19 19 20 19 19 19 19 18 18 17 17 14 13 12 14 14 13 13 12 12
26 25 25 22 19 18 18 20 21 21 20 19 18 17 18 18 17 17 17 18 18 18 18 19 19 19 19 18 18 18 18 17 18 11 12 14 10 12 12 11 11 10 9
25 25 25 23 20 18 18 19 21 20 20 20 18 18 18 18 17 17 17 17 18 18 18 18 18 18 17 17 17 17 17 18 13 10 10 10 10 11 11 10 9 9 8
26 26 26 24 21 19 17 18 19 19 19 19 18 18 18 18 18 17 17 16 16 17 18 17 17 16 15 15 15 15 15 15 12 9 9 8 9 9 9 8 8 7 7
26 28 28 26 23 20 18 18 18 18 19 19 18 18 17 18 18 17 17 16 16 16 17 15 15 15 15 13 15 13 12 11 11 6 7 6 8 7 7 7 6 6 6
28 29 29 28 26 24 21 18 18 18 18 18 18 17 18 17 17 17 17 17 17 16 16 15 15 14 14 14 13 11 10 9 5 6 5 6 5 4 5 5 5 5 5
29 31 31 31 29 27 24 22 19 19 19 19 18 18 18 18 18 18 18 18 17 16 16 16 16 14 12 11 10 9 9 3 4 6 6 7 6 4 3 4 5 5 5
31 32 33 32 31 29 25 24 23 22 22 22 22 22 21 17 20 19 19 19 18 18 17 16 16 15 13 8 8 8 6 7 5 5 6 9 8 6 4 4 5 6 6
29 30 32 33 33 31 26 26 26 25 25 26 25 25 22 19 19 21 21 22 21 21 21 20 19 18 16 11 10 10 9 9 6 7 9 9 10 10 7 6 5 5 7
29 29 30 31 33 33 26 28 25 24 25 25 27 27 24 23 21 21 18 22 24 23 21 21 18 19 17 18 15 13 15 11 9 9 11 11 12 13 11 9 8 7 8
27 28 30 31 33 34 33 26 26 27 28 25 26 29 27 24 23 22 20 20 20 20 22 20 19 19 19 19 19 19 17 17 14 11 10 15 13 14 13 12 11 11 11
25 29 30 31 32 33 34 31 29 29 27 29 26 28 30 27 25 23 22 22 21 21 20 20 20 19 18 18 21 22 21 19 17 14 12 14 15 15 15 15 14 14 14
27 27 30 31 31 32 34 34 31 29 30 30 28 31 31 32 29 28 24 25 24 21 24 23 22 22 20 21 23 20 23 23 22 20 17 15 15 18 18 18 19 18 16
25 28 29 31 32 32 33 34 33 30 32 31 30 30 33 33 33 31 29 27 25 24 24 26 25 23 23 21 21 22 20 21 20 21 19 18 17 16 19 22 22 21 20
27 27 30 31 33 32 33 34 33 32 33 31 30 32 33 34 35 34 32 28 29 27 26 25 24 24 22 22 22 22 23 22 20 20 21 21 21 22 19 21 21 21 22
27 28 30 32 33 34 34 35 32 32 34 34 33 33 34 35 36 37 35 32 32 28 26 26 26 23 26 22 21 22 22 23 24 27 25 23 23 23 23 22 21 22 22
28 29 32 34 37 38 37 36 37 37 36 36 35 35 37 38 37 38 38 37 37 34 31 30 29 29 24 23 20 22 23 26 31 33 29 25 24 24 24 25 24 22 20
30 32 33 38 39 42 42 41 38 36 34 34 33 35 39 40 40 41 41 39 38 37 36 34 33 28 26 23 23 19 22 22 23 29 34 32 28 24 24 26 29 29 25
34 35 36 37 42 45 45 41 35 27 29 30 36 39 41 41 42 43 44 43 42 40 38 38 37 35 28 23 27 23 15 17 18 19 22 26 26 24 24 25 29 32 32
37 38 41 38 42 44 44 38 42 44 41 44 40 38 39 41 43 44 45 46 44 44 41 39 37 38 34 29 24 28 33 27 21 20 20 20 21 23 26 29 29 31 32
34 38 43 40 42 40 44 45 45 46 46 39 35 34 35 36 39 43 45 44 45 45 44 41 39 39 32 32 30 26 23 28 30 31 32 26 28 32 23 29 27 28 29
29 30 38 36 42 42 43 46 46 45 44 36 38 36 34 34 36 39 40 41 40 42 42 41 39 39 37 31 29 28 28 25 24 30 31 33 33 37 37 29 30 31 31
Wind_Direction
168 167 155 150 150 155 166 171 170 168 163 157 153 146 143 138 133 135 138 136 130 122 123 117 114 113 111 107 105 105 104 106 106 104 105 104 103 102 100 92 86 96 98
163 167 157 152 150 152 161 169 172 170 164 162 157 152 147 144 140 142 142 140 134 129 126 120 117 114 110 109 108 107 105 104 103 102 101 100 101 102 101 105 103 99 99
164 166 159 155 153 151 157 163 171 169 168 164 158 154 151 148 146 145 146 143 138 131 128 124 122 118 116 114 110 109 108 106 103 100 87 98 103 100 99 99 100 100 96
169 167 162 159 157 153 158 160 167 169 167 161 158 155 152 149 146 147 149 147 140 136 133 130 127 123 120 118 115 112 110 108 107 91 102 105 105 101 99 98 99 99 96
168 168 166 163 160 159 162 163 167 167 164 161 157 153 151 151 146 146 147 147 142 141 139 134 129 125 122 119 116 112 108 108 108 104 117 117 113 103 103 103 103 102 102
167 170 169 167 164 163 167 166 167 167 165 161 158 156 154 153 150 148 149 149 147 146 142 137 131 126 123 122 121 118 116 114 96 120 121 118 127 110 109 106 106 111 113
170 173 174 171 169 170 172 170 169 169 168 165 162 159 157 156 155 153 154 155 153 149 144 140 138 134 133 132 123 120 120 116 111 124 123 124 124 121 120 117 114 112 109
174 179 178 175 176 176 178 175 173 172 172 170 168 164 162 161 160 159 159 161 159 154 150 150 152 147 137 135 133 131 127 123 115 128 123 119 121 129 130 127 126 119 119
180 184 183 180 182 182 183 183 179 178 177 176 175 170 167 167 167 165 165 167 166 163 160 159 158 162 159 150 149 142 140 141 138 149 139 136 123 130 140 144 144 143 141
186 188 188 186 185 186 186 188 187 183 183 181 181 179 175 176 176 174 173 174 173 173 172 166 162 157 160 160 161 159 157 160 151 185 170 187 157 139 143 161 168 164 164
189 193 192 192 191 190 191 189 192 191 188 188 187 188 185 185 185 183 184 182 182 182 183 181 178 174 173 172 173 170 166 175 191 196 206 218 199 187 166 177 187 190 193
191 194 197 196 197 194 193 195 193 195 195 194 194 195 193 192 191 191 194 190 191 191 194 196 197 195 192 203 211 199 198 216 210 225 222 232 226 220 203 198 206 210 212
189 194 198 199 200 200 194 198 198 199 199 201 200 201 196 200 200 194 199 197 198 198 201 204 208 211 212 212 218 220 230 228 233 244 242 243 242 237 231 231 232 237 233
190 195 199 201 203 203 199 201 201 201 202 203 206 205 202 204 204 200 200 202 202 206 205 211 213 214 219 225 226 232 235 233 243 245 252 250 249 243 237 242 248 252 252
193 196 201 201 206 207 205 203 204 207 210 208 210 212 209 208 209 205 206 204 207 208 211 213 213 221 227 229 233 239 243 244 241 245 250 261 252 247 244 246 254 257 263
196 201 205 205 209 211 212 210 210 214 214 212 214 218 219 215 217 212 212 211 212 213 214 218 221 225 229 232 239 242 244 246 249 245 250 266 257 253 249 251 258 261 261
201 201 210 212 213 214 218 218 215 218 217 219 217 222 226 224 223 220 219 220 219 219 222 224 226 229 231 236 240 244 248 251 251 251 249 248 264 252 254 256 263 261 256
203 207 213 216 221 220 222 222 220 219 223 223 222 224 227 230 229 229 227 228 224 222 227 228 230 232 235 237 242 245 249 251 252 251 249 248 249 248 260 257 258 257 256
209 210 217 220 224 227 227 227 228 228 230 227 225 227 231 230 232 233 230 231 231 229 229 229 231 232 235 238 241 246 249 250 252 254 252 250 247 246 248 259 253 254 254
213 213 220 225 227 229 227 227 228 229 234 232 231 232 234 235 234 234 233 232 235 231 231 232 231 235 238 239 244 249 249 251 253 255 254 253 250 250 250 246 254 255 255
218 219 223 227 230 230 227 227 227 231 233 234 233 233 235 236 237 237 235 235 237 236 234 238 238 239 239 239 243 251 255 257 257 259 260 252 250 247 246 250 251 247 255
224 222 227 231 234 233 233 235 235 234 232 236 235 235 239 239 239 240 239 236 238 238 239 238 239 236 241 234 237 248 255 263 260 264 259 257 252 246 247 249 253 256 251
234 233 230 229 233 236 236 234 229 225 230 233 236 240 245 245 242 243 244 240 241 242 241 244 244 242 236 238 236 234 244 249 265 261 267 261 252 248 249 250 254 256 255
242 248 250 236 232 234 233 224 230 236 236 245 249 247 244 244 241 242 242 242 241 244 243 244 247 247 244 236 239 243 240 248 254 264 269 263 254 250 258 269 270 271 272
247 252 253 251 233 229 234 232 234 235 242 243 243 244 246 242 241 240 241 240 241 243 246 246 245 249 242 243 238 243 250 247 248 253 260 259 263 267 255 259 259 264 272
243 241 253 246 238 229 228 235 234 241 243 234 235 239 239 240 240 240 239 242 243 243 244 246 246 246 249 243 243 239 240 243 244 241 249 256 255 265 269 262 264 266 262